Location: The Saddle
(36.8333°N, 80.3417°W)
Time: 12:30:20
(UTC-04:00)

SR - Pass Details

Date: 28 May 2024
Orbit: 580 x 858 km, 66.7° (Epoch: 14 June)

Event Time Altitude Azimuth Distance (km) Brightness Sun altitude
Rises 01:45:48 0° 347° (NNW) 2,839 ? -31.3°
Reaches altitude 10° 01:48:35 10° 5° (N) 1,912 ? -31.2°
Maximum altitude 01:51:43 19° 52° (NE) 1,386 ? -31.1°
Enters shadow 01:51:53 19° 55° (NE) 1,388 ? -31.1°
